Pampa, TX

6:13 AM CST on December 06, 2016 (GMT -0600)
Perry Lefors

Weather History for KPPA - March, 2013

Change the Weather History Date:

Friday, March 15, 2013

  Actual Average Record
Temperature  
Mean Temperature 62 °F -  
Max Temperature 83 °F 63 °F 85 °F (1972)
Min Temperature 41 °F 32 °F 18 °F (1988)
Degree Days  
Heating Degree Days 4    
Growing Degree Days 12 (Base 50)    
Moisture  
Dew Point 29 °F    
Average Humidity 37    
Maximum Humidity 77    
Minimum Humidity 10    
Precipitation  
Precipitation 0.00 in - - ()
Sea Level Pressure  
Sea Level Pressure 29.97 in    
Wind  
Wind Speed 8 mph (WSW)    
Max Wind Speed 16 mph    
Max Gust Speed 24 mph    
Visibility 10 miles    
Events      
Averages and records for this station are not official NWS values.
T = Trace of Precipitation, MM = Missing Value Source: NWS Daily Summary

Daily Weather History Graph

Daily Weather History Graph

Search for Another Location

Airport or City:

Trip Planner

Search our weather history database for the weather conditions in past years. The results will help you decide how hot, cold, wet, or windy it might be!

Date:

Astronomy

Mar. 15, 2013 Rise Set
Actual Time 7:54 AM CDT 7:51 PM CDT
Civil Twilight 7:28 AM CDT 8:17 PM CDT
Nautical Twilight 6:59 AM CDT 8:46 PM CDT
Astronomical Twilight 6:29 AM CDT 9:16 PM CDT
Moon 9:54 AM CDT (3/15) 11:57 PM CDT (3/15)
Length of Visible Light 12h 48m
Length of Day
11h 57m
Waxing Crescent, 15% of the Moon is Illuminated
Mar 15
Waxing Crescent
Mar 19
First Quarter
Mar 27
Full
Apr 2
Last Quarter
Apr 10
New

Hourly Weather History & Observations

Time (CDT) Temp. Windchill Dew Point Humidity Pressure Visibility Wind Dir Wind Speed Gust Speed Precip Events Conditions
12:15 AM 52.2 °F - 37.0 °F 56% 30.16 in 10.0 mi SE 5.8 mph - N/A   Clear
12:35 AM 52.9 °F - 36.5 °F 54% 30.15 in 10.0 mi ESE 5.8 mph - N/A   Clear
12:55 AM 52.2 °F - 36.5 °F 55% 30.14 in 10.0 mi ESE 5.8 mph - N/A   Clear
1:15 AM 53.6 °F - 36.5 °F 52% 30.13 in 10.0 mi ESE 6.9 mph - N/A   Clear
1:35 AM 53.8 °F - 36.5 °F 52% 30.12 in 10.0 mi ESE 6.9 mph - N/A   Clear
1:55 AM 52.7 °F - 36.5 °F 54% 30.11 in 10.0 mi ESE 8.1 mph - N/A   Clear
2:15 AM 50.7 °F - 36.3 °F 58% 30.11 in 10.0 mi SSE 3.5 mph - N/A   Clear
2:35 AM 51.1 °F - 36.5 °F 57% 30.11 in 10.0 mi SSE 3.5 mph - N/A   Clear
2:55 AM 50.0 °F - 36.1 °F 59% 30.11 in 10.0 mi SSE 4.6 mph - N/A   Clear
3:15 AM 50.5 °F - 36.0 °F 57% 30.10 in 10.0 mi South 4.6 mph - N/A   Clear
3:35 AM 44.6 °F 39.7 °F 36.0 °F 72% 30.10 in 10.0 mi WNW 9.2 mph - N/A   Clear
3:55 AM 44.6 °F 40.7 °F 36.0 °F 72% 30.09 in 10.0 mi WNW 6.9 mph - N/A   Clear
4:15 AM 46.2 °F 43.3 °F 36.3 °F 68% 30.08 in 10.0 mi WNW 5.8 mph - N/A   Clear
4:35 AM 46.2 °F 43.3 °F 36.5 °F 69% 30.07 in 10.0 mi WNW 5.8 mph - N/A   Clear
4:55 AM 44.1 °F 41.5 °F 35.8 °F 73% 30.06 in 10.0 mi West 4.6 mph - N/A   Clear
5:15 AM 46.4 °F 43.5 °F 36.7 °F 69% 30.06 in 10.0 mi WSW 5.8 mph - N/A   Clear
5:35 AM 43.0 °F 37.7 °F 36.0 °F 76% 30.05 in 10.0 mi West 9.2 mph - N/A   Clear
5:55 AM 42.8 °F 36.6 °F 36.0 °F 77% 30.05 in 10.0 mi West 11.5 mph - N/A   Clear
6:15 AM 42.8 °F 37.0 °F 35.8 °F 76% 30.05 in 10.0 mi West 10.4 mph - N/A   Clear
6:35 AM 43.9 °F 38.8 °F 36.0 °F 74% 30.05 in 10.0 mi West 9.2 mph - N/A   Clear
6:55 AM 44.6 °F 39.7 °F 36.0 °F 72% 30.06 in 10.0 mi West 9.2 mph - N/A   Clear
7:15 AM 44.2 °F 39.2 °F 35.6 °F 72% 30.06 in 10.0 mi West 9.2 mph - N/A   Clear
7:35 AM 43.5 °F 39.4 °F 34.5 °F 71% 30.06 in 10.0 mi WSW 6.9 mph - N/A   Clear
7:55 AM 41.7 °F 36.7 °F 34.5 °F 76% 30.05 in 10.0 mi WSW 8.1 mph - N/A   Clear
8:15 AM 41.5 °F 36.4 °F 34.9 °F 77% 30.06 in 10.0 mi West 8.1 mph - N/A   Clear
8:35 AM 45.3 °F 40.1 °F 36.1 °F 70% 30.06 in 10.0 mi West 10.4 mph - N/A   Clear
8:55 AM 47.8 °F - 37.6 °F 68% 30.06 in 10.0 mi WNW 6.9 mph - N/A   Clear
9:15 AM 52.3 °F - 35.6 °F 53% 30.06 in 10.0 mi West 12.7 mph - N/A   Clear
9:35 AM 54.5 °F - 33.1 °F 44% 30.06 in 10.0 mi West 15.0 mph - N/A   Clear
10:55 AM 66.0 °F - 30.4 °F 26% 30.03 in 10.0 mi West 12.7 mph - N/A   Clear
11:15 AM 67.5 °F - 29.5 °F 24% 30.03 in 10.0 mi West 11.5 mph - N/A   Clear
11:35 AM 69.4 °F - 29.5 °F 23% 30.03 in 10.0 mi West 11.5 mph - N/A   Clear
11:55 AM 71.1 °F - 29.3 °F 21% 30.02 in 10.0 mi West 10.4 mph - N/A   Clear
12:15 PM 72.9 °F - 28.2 °F 19% 30.01 in 10.0 mi West 10.4 mph - N/A   Clear
12:35 PM 76.3 °F - 27.3 °F 16% 30.01 in 10.0 mi WSW 12.7 mph 18.4 mph N/A   Clear
12:55 PM 77.2 °F - 25.0 °F 14% 29.99 in 10.0 mi WSW 16.1 mph 21.9 mph N/A   Clear
1:15 PM 79.2 °F - 23.5 °F 13% 29.98 in 10.0 mi WSW 16.1 mph 21.9 mph N/A   Clear
1:35 PM 80.4 °F - 24.1 °F 13% 29.96 in 10.0 mi SW 15.0 mph 23.0 mph N/A   Clear
1:55 PM 79.9 °F - 23.5 °F 12% 29.96 in 10.0 mi West 13.8 mph 23.0 mph N/A   Clear
2:15 PM 81.1 °F - 23.9 °F 12% 29.95 in 10.0 mi WSW 13.8 mph 23.0 mph N/A   Clear
2:35 PM 81.5 °F - 23.9 °F 12% 29.92 in 10.0 mi WSW 15.0 mph 24.2 mph N/A   Clear
2:55 PM 81.9 °F - 23.7 °F 12% 29.91 in 10.0 mi WSW 13.8 mph 23.0 mph N/A   Clear
3:15 PM 82.6 °F - 23.9 °F 12% 29.90 in 10.0 mi SW 15.0 mph 20.7 mph N/A   Clear
3:35 PM 82.6 °F - 24.1 °F 12% 29.89 in 10.0 mi WSW 15.0 mph 24.2 mph N/A   Clear
3:55 PM 82.6 °F - 24.1 °F 12% 29.88 in 10.0 mi West 13.8 mph 20.7 mph N/A   Clear
4:15 PM 81.5 °F - 24.8 °F 12% 29.88 in 10.0 mi WNW 6.9 mph 18.4 mph N/A   Clear
4:35 PM 82.6 °F - 24.4 °F 12% 29.87 in 10.0 mi Calm Calm - N/A   Clear
4:55 PM 82.2 °F - 24.3 °F 12% 29.86 in 10.0 mi NNW 6.9 mph - N/A   Clear
5:15 PM 82.2 °F - 24.1 °F 12% 29.86 in 10.0 mi WNW 10.4 mph 18.4 mph N/A   Clear
5:35 PM 82.4 °F - 22.6 °F 11% 29.86 in 10.0 mi West 8.1 mph - N/A   Clear
5:55 PM 82.9 °F - 19.6 °F 10% 29.85 in 10.0 mi WSW 15.0 mph 19.6 mph N/A   Clear
6:15 PM 81.5 °F - 18.9 °F 10% 29.85 in 10.0 mi West 10.4 mph - N/A   Clear
6:35 PM 80.1 °F - 20.1 °F 11% 29.84 in 10.0 mi West 8.1 mph - N/A   Clear
6:55 PM 79.2 °F - 21.2 °F 12% 29.84 in 10.0 mi West 10.4 mph - N/A   Clear
7:15 PM 74.7 °F - 21.0 °F 13% 29.84 in 10.0 mi West 6.9 mph - N/A   Clear
7:35 PM 72.9 °F - 22.6 °F 15% 29.84 in 10.0 mi West 6.9 mph - N/A   Clear
7:55 PM 70.7 °F - 23.5 °F 17% 29.84 in 10.0 mi WSW 6.9 mph - N/A   Clear
8:15 PM 65.7 °F - 24.6 °F 21% 29.84 in 10.0 mi West 5.8 mph - N/A   Clear
8:35 PM 69.4 °F - 21.4 °F 16% 29.83 in 10.0 mi Calm Calm - N/A   Clear
8:55 PM 66.9 °F - 20.8 °F 17% 29.83 in 10.0 mi SW 4.6 mph - N/A   Clear
9:15 PM 60.4 °F - 24.6 °F 25% 29.83 in 10.0 mi SW 9.2 mph - N/A   Clear
9:35 PM 60.1 °F - 22.6 °F 24% 29.83 in 10.0 mi WSW 8.1 mph - N/A   Clear
9:55 PM 62.4 °F - 20.5 °F 20% 29.83 in 10.0 mi SW 9.2 mph - N/A   Clear
10:15 PM 62.1 °F - 21.4 °F 21% 29.83 in 10.0 mi WSW 8.1 mph - N/A   Clear
10:35 PM 60.8 °F - 22.5 °F 23% 29.83 in 10.0 mi SW 8.1 mph - N/A   Clear
10:55 PM 59.5 °F - 22.8 °F 24% 29.82 in 10.0 mi WSW 9.2 mph - N/A   Clear
11:15 PM 60.8 °F - 22.1 °F 23% 29.82 in 10.0 mi WSW 9.2 mph - N/A   Clear
11:35 PM 58.3 °F - 23.7 °F 26% 29.82 in 10.0 mi WSW 8.1 mph - N/A   Clear
11:55 PM 58.5 °F - 22.6 °F 25% 29.81 in 10.0 mi SW 9.2 mph - N/A   Clear